Regional Weather Roundup
Issued by NWS Mt. Holly, NJ

Home | Current Version | Previous Version | Text Only | Print | Product List | Glossary On
Versions: 1 2 3 4 5 6 7 8 9 10 11 12 13 14 15 16 17 18 19 20 21 22 23 24 25 26 27 28 29 30 31 32 33 34 35 36 37 38 39 40 41 42 43 44 45 46 47 48 49 50
000
ASUS41 KPHI 310411
RWRPHI

REGIONAL WEATHER ROUNDUP
NATIONAL WEATHER SERVICE MOUNT HOLLY NJ
1200 AM EDT MON AUG 31 2015

NOTE:  "FAIR" INDICATES FEW OR NO CLOUDS BELOW 12,000 FEET WITH NO
SIGNIFICANT WEATHER AND/OR OBSTRUCTIONS TO VISIBILITY.

 * = STATION DOES NOT REPORT PRECIPITATION (E.G. RAIN, SNOW, ETC.)
        OR FOG.

NJZ015>026-310500-
SOUTHERN NEW JERSEY

CITY           SKY/WX    TMP DP  RH WIND       PRES   REMARKS
POMONA         CLOUDY    76  67  73 SW9       30.09R
WILDWOOD*      CLOUDY    75  64  69 SW8       30.11S
MILLVILLE      CLOUDY    76  67  73 SW3       30.09S
WRIGHTSTOWN    CLOUDY    73  68  83 SW6       30.05R
MOUNT HOLLY    CLOUDY    77  65  66 SW6       30.07R
TRENTON        NOT AVBL

$$
NJZ001>014-310500-
NORTHERN NEW JERSEY

CITY           SKY/WX    TMP DP  RH WIND       PRES   REMARKS
SUSSEX         FOG       69  68  96 CALM      30.05S VSB 1/4
ANDOVER*         N/A     68  67  96 CALM      30.07R
MORRISTOWN     CLOUDY    75  63  64 CALM      30.05R
NEWARK         CLOUDY    80  66  62 SW8       30.04R
TETERBORO      CLOUDY    82  64  54 SW7       30.02S
CALDWELL       CLOUDY    78  64  61 SW3       30.04S
SOMERVILLE     CLOUDY    72  67  84 CALM      30.04R
ALLAIRE*       CLOUDY    75  63  64 SW7       30.07R
TOMS RIVER*    CLOUDY    73  64  73 SW6       30.08R

$$
PAZ043-044-047-054-055-060>062-066>071-310500-
EASTERN PENNSYLVANIA

CITY           SKY/WX    TMP DP  RH WIND       PRES   REMARKS
PHILADELPHIA   CLOUDY    80  65  59 SW13      30.08R
NORTH PHILA    CLOUDY    81  63  54 SW8       30.08R
BLUE BELL      CLOUDY    77  68  73 SW5       30.07S
DOYLESTOWN     CLOUDY    74  66  76 SW3       30.07R
QUAKERTOWN*    CLOUDY    73  66  78 CALM      30.08S
POTTSTOWN      CLOUDY    75  68  78 SW6       30.09S
LANCASTER      CLOUDY    75  67  76 W7        30.08S
COATESVILLE    CLOUDY    73  72  94 W3        30.10S
READING        CLOUDY    76  67  73 CALM      30.06S
ALLENTOWN      CLOUDY    72  67  84 CALM      30.06S
MOUNT POCONO   CLOUDY    68  64  87 NW6       30.12S
HAZLETON       CLOUDY    70  66  88 CALM      30.15R
WILKES BARRE   MOCLDY    74  65  73 SW5       30.07S

$$
DEZALL-MDZ008-012-015-019-020-310500-
DELAWARE AND EASTERN MARYLAND

CITY           SKY/WX    TMP DP  RH WIND       PRES   REMARKS
WILMINGTON     CLOUDY    76  66  71 SW5       30.09R
DOVER          CLOUDY    76  71  84 S9        30.07S
GEORGETOWN     CLOUDY    74  67  78 S6        30.11S
PATUXENT       CLOUDY    76  64  66 SW8       30.10R
OCEAN CITY     CLOUDY    77  66  68 SW6       30.11R
WALLOPS ISLAND CLOUDY    75  69  81 SW7       30.12R
CAMBRIDGE      CLOUDY    77  66  69 CALM      30.10S
SALISBURY      LGT RAIN  72  67  84 S3        30.10S

$$
PAZ001-021-NYZ056-072-MDZ011-DCZ001-310500-
OTHER NEARBY LOCATIONS

CITY           SKY/WX    TMP DP  RH WIND       PRES   REMARKS
HARRISBURG     CLOUDY    75  66  73 SE3       30.06S
STATE COLLEGE  CLOUDY    70  66  85 CALM      30.11R
WILLIAMSPORT   CLOUDY    71  68  90 CALM      30.06S
BINGHAMTON     PTCLDY    67  64  90 MISG      30.08F
NEW YORK CITY  CLOUDY    76  68  76 VRB5      30.07S
BALTIMORE      CLOUDY    77  66  68 CALM      30.07S
WASHINGTON DC  CLOUDY    79  66  64 S9        30.09S

$$



USA.gov is the U.S. government's official web portal to all federal, state and local government web resources and services.